| time (UTC) | temp F | wind direction | speed MPH | gust MPH | rain 1hr in | rain 24hr in | rain mn in | humidity % | barometer mb |
| 20260504081504 | 56 | 360 | 5.0 | 10.0 | 0.00 | 0.00 | 0.00 | 50 | 965.0 |
| 20260504044539 | 57 | 360 | 0.0 | 3.0 | 0.00 | 0.00 | 0.00 | 44 | 967.4 |
| 20260504043030 | 58 | 360 | 1.0 | 4.0 | 0.00 | 0.00 | 0.00 | 44 | 967.6 |
| 20260504041530 | 57 | 360 | 1.0 | 4.0 | 0.00 | 0.00 | 0.00 | 44 | 967.8 |
| 20260504040027 | 56 | 360 | 0.0 | 2.0 | 0.00 | 0.00 | 0.00 | 45 | 967.9 |
| 20260504034526 | 57 | 360 | 0.0 | 3.0 | 0.00 | 0.00 | 0.00 | 45 | 968.1 |
| 20260504033025 | 61 | 360 | 0.0 | 1.0 | 0.00 | 0.00 | 0.00 | 39 | 968.3 |
| 20260504031525 | 62 | 360 | 0.0 | 3.0 | 0.00 | 0.00 | 0.00 | 37 | 968.4 |
| 20260504030036 | 62 | 360 | 1.0 | 3.0 | 0.00 | 0.00 | 0.00 | 37 | 968.4 |
| 20260504024525 | 62 | 360 | 0.0 | 2.0 | 0.00 | 0.00 | 0.00 | 37 | 968.5 |
| 20260504023024 | 64 | 360 | 2.0 | 4.0 | 0.00 | 0.00 | 0.00 | 35 | 968.2 |
| 20260504021527 | 64 | 360 | 1.0 | 3.0 | 0.00 | 0.00 | 0.00 | 35 | 968.1 |
| 20260504020022 | 64 | 360 | 0.0 | 2.0 | 0.00 | 0.00 | 0.00 | 34 | 968.2 |
| 20260504014522 | 65 | 360 | 0.0 | 3.0 | 0.00 | 0.00 | 0.00 | 34 | 968.1 |
| 20260504013022 | 65 | 360 | 2.0 | 5.0 | 0.00 | 0.00 | 0.00 | 34 | 968.2 |
| 20260504011523 | 66 | 6 | 3.0 | 8.0 | 0.00 | 0.00 | 0.00 | 33 | 968.3 |
| 20260504010022 | 68 | 5 | 7.0 | 9.0 | 0.00 | 0.00 | 0.00 | 31 | 968.2 |
| 20260504004522 | 69 | 5 | 5.0 | 9.0 | 0.00 | 0.00 | 0.00 | 30 | 968.2 |
| 20260504003019 | 70 | 6 | 2.0 | 9.0 | 0.00 | 0.00 | 0.00 | 29 | 968.3 |
| 20260504001518 | 71 | 5 | 5.0 | 13.0 | 0.00 | 0.00 | 0.00 | 28 | 968.2 |
| 20260504000017 | 71 | 5 | 5.0 | 12.0 | 0.00 | 0.00 | 0.00 | 28 | 968.3 |
| 20260503234526 | 72 | 6 | 11.0 | 20.0 | 0.00 | 0.00 | 0.00 | 26 | 968.3 |
| 20260503233015 | 72 | 5 | 9.0 | 16.0 | 0.00 | 0.00 | 0.00 | 26 | 968.4 |
| 20260503231516 | 72 | 5 | 8.0 | 17.0 | 0.00 | 0.00 | 0.00 | 28 | 968.3 |
| 20260503230017 | 73 | 5 | 6.0 | 15.0 | 0.00 | 0.00 | 0.00 | 27 | 968.3 |
| 20260503224515 | 73 | 4 | 14.0 | 21.0 | 0.00 | 0.00 | 0.00 | 26 | 968.3 |
| 20260503223012 | 73 | 6 | 10.0 | 17.0 | 0.00 | 0.00 | 0.00 | 27 | 968.2 |
| 20260503221511 | 73 | 6 | 8.0 | 20.0 | 0.00 | 0.00 | 0.00 | 27 | 968.2 |
| 20260503220028 | 73 | 5 | 11.0 | 19.0 | 0.00 | 0.00 | 0.00 | 26 | 968.2 |
| 20260503214509 | 73 | 5 | 10.0 | 16.0 | 0.00 | 0.00 | 0.00 | 26 | 968.4 |
| 20260503213011 | 74 | 5 | 8.0 | 15.0 | 0.00 | 0.00 | 0.00 | 27 | 968.4 |
| 20260503211506 | 73 | 6 | 9.0 | 19.0 | 0.00 | 0.00 | 0.00 | 27 | 968.1 |
| 20260503210005 | 73 | 6 | 8.0 | 16.0 | 0.00 | 0.00 | 0.00 | 28 | 968.3 |
| 20260503204504 | 74 | 5 | 6.0 | 13.0 | 0.00 | 0.00 | 0.00 | 26 | 968.5 |
| 20260503203105 | 73 | 6 | 9.0 | 20.0 | 0.00 | 0.00 | 0.00 | 27 | 968.5 |
| 20260503201559 | 73 | 6 | 4.0 | 14.0 | 0.00 | 0.00 | 0.00 | 31 | 968.4 |
| 20260503194556 | 72 | 6 | 6.0 | 22.0 | 0.00 | 0.00 | 0.00 | 33 | 968.6 |
| 20260503193101 | 72 | 6 | 9.0 | 18.0 | 0.00 | 0.00 | 0.00 | 31 | 968.5 |
| 20260503191552 | 72 | 6 | 10.0 | 19.0 | 0.00 | 0.00 | 0.00 | 32 | 968.6 |
| 20260503190057 | 71 | 6 | 13.0 | 27.0 | 0.00 | 0.00 | 0.00 | 31 | 968.6 |
| 20260503184603 | 71 | 5 | 9.0 | 17.0 | 0.00 | 0.00 | 0.00 | 32 | 968.8 |
| 20260503183057 | 70 | 6 | 12.0 | 19.0 | 0.00 | 0.00 | 0.00 | 34 | 968.6 |
| 20260503181545 | 70 | 6 | 10.0 | 22.0 | 0.00 | 0.00 | 0.00 | 35 | 968.7 |
| 20260503180047 | 71 | 6 | 10.0 | 17.0 | 0.00 | 0.00 | 0.00 | 37 | 968.8 |
| 20260503174543 | 70 | 5 | 9.0 | 20.0 | 0.00 | 0.00 | 0.00 | 36 | 968.8 |
| 20260503173040 | 69 | 6 | 15.0 | 26.0 | 0.00 | 0.00 | 0.00 | 35 | 968.8 |
| 20260503171537 | 69 | 6 | 9.0 | 21.0 | 0.00 | 0.00 | 0.00 | 38 | 968.9 |